Time,TemperatureF,DewpointF,PressureIn,WindDirection,WindDirectionDegrees,WindSpeedMPH,WindSpeedGustMPH,Humidity,HourlyPrecipIn,Conditions,Clouds,dailyrainin,SoftwareType,DateUTC
2013-09-06 00:03:00,66.0,66.0,30.10,North,0,0.0,-999.0,100,-99.99,,,-99.99,,2013-09-06 05:03:00,
2013-09-06 00:12:00,66.0,66.0,30.10,North,0,0.0,-999.0,100,-99.99,,,-99.99,,2013-09-06 05:12:00,
2013-09-06 00:23:00,66.0,66.0,30.10,North,0,0.0,-999.0,100,-99.99,,,-99.99,,2013-09-06 05:23:00,
2013-09-06 00:43:00,66.0,66.0,30.09,ESE,120,6.0,-999.0,100,-99.99,,,-99.99,,2013-09-06 05:43:00,
2013-09-06 01:22:00,66.0,66.0,30.08,North,0,0.0,-999.0,100,-99.99,,,-99.99,,2013-09-06 06:22:00,
2013-09-06 01:42:00,66.0,66.0,30.08,ESE,120,5.0,-999.0,100,-99.99,,,-99.99,,2013-09-06 06:42:00,
2013-09-06 02:23:00,64.0,64.0,30.08,ESE,120,5.0,-999.0,100,-99.99,,,-99.99,,2013-09-06 07:23:00,
2013-09-06 02:42:00,64.0,64.0,30.08,ESE,120,5.0,-999.0,100,-99.99,,,-99.99,,2013-09-06 07:42:00,
2013-09-06 02:52:00,64.0,64.0,30.08,North,0,0.0,-999.0,100,-99.99,,,-99.99,,2013-09-06 07:52:00,
2013-09-06 03:03:00,64.0,64.0,30.08,North,0,0.0,-999.0,100,-99.99,,,-99.99,,2013-09-06 08:03:00,
2013-09-06 03:22:00,64.0,64.0,30.07,North,0,0.0,-999.0,100,-99.99,,,-99.99,,2013-09-06 08:22:00,
2013-09-06 03:42:00,64.0,64.0,30.08,North,0,0.0,-999.0,100,-99.99,,,-99.99,,2013-09-06 08:42:00,
2013-09-06 04:22:00,64.0,64.0,30.07,North,0,0.0,-999.0,100,-99.99,,,-99.99,,2013-09-06 09:22:00,
2013-09-06 04:43:00,64.0,64.0,30.07,ESE,120,7.0,-999.0,100,-99.99,,,-99.99,,2013-09-06 09:43:00,
2013-09-06 05:23:00,66.0,66.0,30.06,SE,140,8.0,-999.0,100,-99.99,,,-99.99,,2013-09-06 10:23:00,
2013-09-06 05:43:00,66.0,66.0,30.05,SE,140,8.0,-999.0,100,-99.99,,,-99.99,,2013-09-06 10:43:00,
2013-09-06 06:22:00,64.0,64.0,30.05,SE,130,8.0,-999.0,100,-99.99,,,-99.99,,2013-09-06 11:22:00,
2013-09-06 06:42:00,64.0,64.0,30.04,SE,130,8.0,-999.0,100,-99.99,,,-99.99,,2013-09-06 11:42:00,
2013-09-06 07:21:00,64.0,64.0,30.04,SE,130,7.0,-999.0,100,-99.99,,,-99.99,,2013-09-06 12:21:00,
2013-09-06 07:42:00,64.0,64.0,30.04,SE,130,7.0,-999.0,100,-99.99,,,-99.99,,2013-09-06 12:42:00,
2013-09-06 08:22:00,66.0,66.0,30.02,ESE,120,9.0,-999.0,100,-99.99,,,-99.99,,2013-09-06 13:22:00,
2013-09-06 08:42:00,66.0,66.0,30.02,SE,130,10.0,-999.0,100,-99.99,,,-99.99,,2013-09-06 13:42:00,
2013-09-06 09:22:00,70.0,70.0,30.01,SE,130,13.0,17.0,100,-99.99,,,-99.99,,2013-09-06 14:22:00,
2013-09-06 09:42:00,72.0,70.0,30.01,SSE,150,10.0,20.0,94,-99.99,,,-99.99,,2013-09-06 14:42:00,
2013-09-06 10:22:00,75.0,72.0,30.00,SSE,150,10.0,18.0,88,-99.99,,,-99.99,,2013-09-06 15:22:00,
2013-09-06 10:43:00,75.0,72.0,29.99,SSE,160,12.0,21.0,88,-99.99,,,-99.99,,2013-09-06 15:43:00,
2013-09-06 11:24:00,79.0,72.0,29.99,South,190,13.0,21.0,78,-99.99,,,-99.99,,2013-09-06 16:24:00,
2013-09-06 11:43:00,81.0,72.0,29.99,South,180,12.0,18.0,74,-99.99,,,-99.99,,2013-09-06 16:43:00,
2013-09-06 11:53:00,81.0,72.0,29.98,SSE,150,13.0,20.0,74,-99.99,,,-99.99,,2013-09-06 16:53:00,
2013-09-06 12:03:00,81.0,72.0,29.98,SSE,150,13.0,20.0,74,-99.99,,,-99.99,,2013-09-06 17:03:00,
2013-09-06 12:24:00,81.0,72.0,29.98,South,190,8.0,-999.0,74,-99.99,,,-99.99,,2013-09-06 17:24:00,
2013-09-06 12:43:00,82.0,70.0,29.97,South,180,14.0,21.0,65,-99.99,,,-99.99,,2013-09-06 17:43:00,
2013-09-06 13:22:00,84.0,72.0,29.96,South,190,10.0,20.0,65,-99.99,,,-99.99,,2013-09-06 18:22:00,
2013-09-06 13:42:00,84.0,73.0,29.96,SSE,160,12.0,18.0,70,-99.99,,,-99.99,,2013-09-06 18:42:00,
2013-09-06 14:22:00,88.0,73.0,29.95,South,190,14.0,21.0,62,-99.99,,,-99.99,,2013-09-06 19:22:00,
2013-09-06 14:43:00,88.0,73.0,29.94,South,170,13.0,17.0,62,-99.99,,,-99.99,,2013-09-06 19:43:00,
2013-09-06 15:12:00,88.0,73.0,29.93,South,180,12.0,20.0,62,-99.99,,,-99.99,,2013-09-06 20:12:00,
2013-09-06 15:23:00,88.0,73.0,29.93,South,180,12.0,20.0,62,-99.99,,,-99.99,,2013-09-06 20:23:00,
2013-09-06 15:42:00,90.0,73.0,29.92,South,170,9.0,-999.0,59,-99.99,,,-99.99,,2013-09-06 20:42:00,
2013-09-06 16:12:00,88.0,73.0,29.92,South,180,10.0,20.0,62,-99.99,,,-99.99,,2013-09-06 21:12:00,
2013-09-06 16:22:00,88.0,73.0,29.92,South,180,10.0,20.0,62,-99.99,,,-99.99,,2013-09-06 21:22:00,
2013-09-06 16:43:00,88.0,73.0,29.91,South,180,12.0,20.0,62,-99.99,,,-99.99,,2013-09-06 21:43:00,
2013-09-06 17:23:00,90.0,75.0,29.92,South,170,7.0,-999.0,62,-99.99,,,-99.99,,2013-09-06 22:23:00,
2013-09-06 17:44:00,90.0,75.0,29.90,South,170,10.0,17.0,62,-99.99,,,-99.99,,2013-09-06 22:44:00,
2013-09-06 18:12:00,88.0,75.0,29.91,South,170,10.0,17.0,66,-99.99,,,-99.99,,2013-09-06 23:12:00,
2013-09-06 18:23:00,88.0,75.0,29.91,South,170,10.0,17.0,66,-99.99,,,-99.99,,2013-09-06 23:23:00,
2013-09-06 18:43:00,88.0,75.0,29.90,South,180,9.0,-999.0,66,-99.99,,,-99.99,,2013-09-06 23:43:00,
2013-09-06 19:22:00,84.0,75.0,29.90,SSE,150,9.0,-999.0,74,-99.99,,,-99.99,,2013-09-07 00:22:00,
2013-09-06 19:42:00,84.0,75.0,29.90,SSE,150,5.0,-999.0,74,-99.99,,,-99.99,,2013-09-07 00:42:00,
2013-09-06 20:22:00,81.0,75.0,29.90,North,0,0.0,-999.0,83,-99.99,,,-99.99,,2013-09-07 01:22:00,
2013-09-06 20:42:00,81.0,75.0,29.90,North,0,0.0,-999.0,83,-99.99,,,-99.99,,2013-09-07 01:42:00,
2013-09-06 21:23:00,79.0,75.0,29.91,SE,140,5.0,-999.0,88,-99.99,,,-99.99,,2013-09-07 02:23:00,
2013-09-06 21:42:00,77.0,75.0,29.92,ENE,70,5.0,-999.0,94,-99.99,,,-99.99,,2013-09-07 02:42:00,
2013-09-06 22:23:00,75.0,75.0,29.91,ENE,70,5.0,-999.0,100,-99.99,,,-99.99,,2013-09-07 03:23:00,
2013-09-06 22:45:00,75.0,75.0,29.91,North,0,0.0,-999.0,100,-99.99,,,-99.99,,2013-09-07 03:45:00,
2013-09-06 23:24:00,73.0,73.0,29.91,North,0,0.0,-999.0,100,-99.99,,,-99.99,,2013-09-07 04:24:00,
2013-09-06 23:43:00,73.0,73.0,29.91,North,0,0.0,-999.0,100,-99.99,,,-99.99,,2013-09-07 04:43:00,